Location: Wells
(51.2093°N, 2.6446°W)
Time: 07:39:13
(UTC+01:00)

PCSat - Pass Details

Date: 16 March 2026
Orbit: 780 x 790 km, 67.1° (Epoch: 13 April)

Event Time Altitude Azimuth Distance (km) Brightness Sun altitude
Exits shadow 03:20:26 - 319° (NW) 2,740 12.3 -27.7°
Reaches altitude 10° 03:22:01 10° 332° (NNW) 2,364 12.1 -27.5°
Maximum altitude 03:25:10 15° 7° (N) 2,011 12.1 -27.1°
Drops below altitude 10° 03:28:19 10° 43° (NE) 2,364 13.0 -26.7°
Sets 03:31:49 0° 66° (ENE) 3,292 14.1 -26.2°
